Bloomington, IL

7:19 AM CDT on July 26, 2017 (GMT -0500)
Central Ill Regional

Weather History for KBMI - June, 2014

Change the Weather History Date:

Monday, June 23, 2014

  Actual Average Record
Temperature  
Mean Temperature 74 °F -  
Max Temperature 81 °F 82 °F 92 °F (2005)
Min Temperature 66 °F 60 °F 57 °F (2001)
Cooling Degree Days 8    
Growing Degree Days 24 (Base 50)    
Moisture  
Dew Point 68 °F    
Average Humidity 81    
Maximum Humidity 93    
Minimum Humidity 56    
Precipitation  
Precipitation 0.00 in - - ()
Sea Level Pressure  
Sea Level Pressure 29.84 in    
Wind  
Wind Speed 6 mph (SW)    
Max Wind Speed 13 mph    
Max Gust Speed -    
Visibility 10 miles    
Events      
Averages and records for this station are not official NWS values.
T = Trace of Precipitation, MM = Missing Value Source: NWS Daily Summary

Daily Weather History Graph

Daily Weather History Graph

Search for Another Location

Airport or City:

Trip Planner

Search our weather history database for the weather conditions in past years. The results will help you decide how hot, cold, wet, or windy it might be!

Date:

Astronomy

Jun. 23, 2014 Rise Set
Actual Time 5:25 AM CDT 8:29 PM CDT
Civil Twilight 4:52 AM CDT 9:03 PM CDT
Nautical Twilight 4:10 AM CDT 9:45 PM CDT
Astronomical Twilight 3:20 AM CDT 10:35 PM CDT
Moon 2:52 AM CDT (6/23) 5:10 PM CDT (6/23)
Length of Visible Light 16h 10m
Length of Day
15h 04m
Waning Crescent, 13% of the Moon is Illuminated
Jun 23
Waning Crescent
Jun 27
New
Jul 5
First Quarter
Jul 12
Full
Jul 18
Last Quarter

Hourly Weather History & Observations

Time (CDT) Temp. Heat Index Dew Point Humidity Pressure Visibility Wind Dir Wind Speed Gust Speed Precip Events Conditions
12:56 AM 66.9 °F - 64.9 °F 93% 29.83 in 10.0 mi SSW 6.9 mph - N/A   Clear
1:56 AM 66.9 °F - 64.9 °F 93% 29.82 in 10.0 mi South 6.9 mph - N/A   Clear
2:56 AM 68.0 °F - 64.9 °F 90% 29.81 in 10.0 mi South 3.5 mph - N/A   Partly Cloudy
3:56 AM 66.9 °F - 64.9 °F 93% 29.81 in 10.0 mi South 6.9 mph - N/A   Clear
4:56 AM 66.9 °F - 64.9 °F 93% 29.83 in 10.0 mi Calm Calm - N/A   Clear
5:56 AM 68.0 °F - 64.9 °F 90% 29.85 in 10.0 mi NNE 4.6 mph - N/A   Mostly Cloudy
6:56 AM 68.9 °F - 65.8 °F 90% 29.85 in 10.0 mi East 5.8 mph - N/A   Scattered Clouds
7:56 AM 70.9 °F - 66.9 °F 87% 29.86 in 10.0 mi ENE 3.5 mph - N/A   Mostly Cloudy
8:56 AM 70.9 °F - 66.9 °F 87% 29.87 in 10.0 mi SW 3.5 mph - 0.00 in   Scattered Clouds
9:27 AM 73.4 °F - 68.0 °F 83% 29.90 in 10.0 mi South 8.1 mph - N/A   Partly Cloudy
9:56 AM 72.9 °F - 68.9 °F 87% 29.86 in 10.0 mi SSW 8.1 mph - N/A   Partly Cloudy
10:56 AM 77.0 °F - 70.9 °F 81% 29.86 in 10.0 mi SSW 8.1 mph - N/A   Partly Cloudy
11:44 AM 78.8 °F - 69.8 °F 74% 29.89 in 10.0 mi SSW 9.2 mph - N/A   Mostly Cloudy
11:56 AM 77.9 °F - 70.0 °F 76% 29.86 in 10.0 mi WSW 8.1 mph - N/A   Mostly Cloudy
12:56 PM 79.0 °F - 70.0 °F 74% 29.85 in 10.0 mi SW 10.4 mph - N/A   Mostly Cloudy
1:56 PM 81.0 °F 84.4 °F 70.0 °F 69% 29.84 in 10.0 mi West 6.9 mph - N/A   Scattered Clouds
2:56 PM 81.0 °F 84.7 °F 70.9 °F 71% 29.83 in 10.0 mi West 9.2 mph - N/A   Scattered Clouds
3:56 PM 81.9 °F 85.6 °F 70.0 °F 67% 29.81 in 10.0 mi WSW 12.7 mph - N/A   Mostly Cloudy
4:56 PM 81.9 °F 85.2 °F 68.9 °F 65% 29.82 in 10.0 mi West 11.5 mph - N/A   Mostly Cloudy
5:56 PM 81.9 °F 83.5 °F 64.9 °F 56% 29.81 in 10.0 mi WNW 9.2 mph - N/A   Clear
6:56 PM 79.9 °F - 68.0 °F 67% 29.81 in 10.0 mi WNW 6.9 mph - N/A   Scattered Clouds
7:56 PM 77.0 °F - 68.0 °F 74% 29.84 in 10.0 mi North 6.9 mph - N/A   Partly Cloudy
8:56 PM 75.9 °F - 68.0 °F 76% 29.85 in 10.0 mi North 5.8 mph - N/A   Partly Cloudy
9:56 PM 72.9 °F - 68.9 °F 87% 29.86 in 10.0 mi Calm Calm - N/A   Clear
10:56 PM 72.0 °F - 68.9 °F 90% 29.88 in 10.0 mi SE 4.6 mph - N/A   Scattered Clouds
11:56 PM 68.9 °F - 64.9 °F 87% 29.85 in 10.0 mi South 4.6 mph - N/A   Partly Cloudy